period_start,C,m1,H,J0,J1,J2,J3,J4,J5,JA,JB,JC,JD,JJ,JK,JN,#
2013-10-26 00:00:15,0.11,2.01,0.00,23.66,25.37,28.01,5.97,30.17,1019.52,2052.05,2773.06,2766.99,2970.15,349.70,323.89,20.62,0000 0000 0000 0000 000000
2013-10-26 00:01:16,0.05,2.01,0.00,23.65,25.37,28.02,6.08,29.88,1019.45,2052.04,2773.01,2766.95,2970.06,350.79,324.88,20.62,0000 0000 0000 0000 000000
2013-10-26 00:02:16,0.02,2.01,0.00,23.64,25.37,28.00,6.05,30.00,1019.50,2052.02,2772.96,2766.85,2970.02,349.83,324.03,20.63,0000 0000 0000 0000 000000
2013-10-26 00:03:16,0.06,2.01,0.00,23.68,25.37,28.03,5.96,30.21,1019.50,2052.04,2772.77,2766.53,2970.00,350.87,324.08,20.64,0000 0000 0000 0000 000000
2013-10-26 00:04:16,0.14,2.02,0.00,23.68,25.37,28.05,5.93,30.13,1019.45,2052.03,2772.38,2766.23,2969.97,349.31,323.48,20.64,0000 0000 0000 0000 000000
2013-10-26 00:05:17,0.12,2.02,0.00,23.69,25.37,28.04,6.12,30.38,1019.41,2052.02,2772.14,2766.09,2969.89,350.45,324.59,20.65,0000 0000 0000 0000 000000
2013-10-26 00:06:17,0.09,2.02,0.00,23.69,25.37,28.04,6.00,30.08,1019.45,2052.02,2772.05,2766.03,2969.53,350.98,324.68,20.65,0000 0000 0000 0000 000000
2013-10-26 00:07:17,0.08,2.02,0.00,23.70,25.37,28.02,6.03,29.88,1019.45,2052.03,2772.01,2766.00,2969.28,350.29,324.03,20.66,0000 0000 0000 0000 000000
2013-10-26 00:08:18,0.05,2.02,0.00,23.69,25.37,28.03,5.94,30.17,1019.51,2052.03,2771.91,2765.98,2969.13,349.77,323.76,20.66,0000 0000 0000 0000 000000
2013-10-26 00:09:18,0.06,2.02,0.00,23.68,25.37,27.99,5.98,30.25,1019.51,2052.05,2771.53,2765.95,2969.05,350.08,324.54,20.67,0000 0000 0000 0000 000000
2013-10-26 00:10:18,0.08,2.02,0.00,23.67,25.37,28.07,5.83,30.13,1019.54,2052.04,2771.22,2765.87,2969.01,349.73,323.91,20.68,0000 0000 0000 0000 000000
2013-10-26 00:11:19,0.09,2.02,0.00,23.69,25.37,28.11,5.92,30.17,1019.55,2052.03,2771.08,2765.56,2969.00,350.03,324.09,20.68,0000 0000 0000 0000 000000
2013-10-26 00:12:19,0.11,2.02,0.00,23.72,25.37,28.04,5.93,30.17,1019.55,2052.05,2771.02,2765.27,2968.98,350.00,324.11,20.69,0000 0000 0000 0000 000000
2013-10-26 00:13:20,0.10,2.02,0.00,23.72,25.37,28.05,5.98,30.17,1019.55,2052.05,2770.97,2765.13,2968.85,350.32,324.40,20.69,0000 0000 0000 0000 000000
2013-10-26 00:14:20,0.08,2.02,0.00,23.70,25.37,28.14,5.93,30.13,1019.54,2052.05,2770.67,2765.05,2968.47,349.61,323.73,20.70,0000 0000 0000 0000 000000
2013-10-26 00:15:20,0.13,2.02,0.00,23.69,25.37,28.10,5.92,30.21,1019.55,2052.03,2770.28,2765.01,2968.20,350.33,324.11,20.71,0000 0000 0000 0000 000000
2013-10-26 00:16:20,0.08,2.02,0.00,23.68,25.37,28.07,5.98,30.08,1019.55,2052.03,2770.10,2764.99,2968.07,350.89,324.96,20.71,0000 0000 0000 0000 000000
2013-10-26 00:17:20,0.06,2.02,0.00,23.70,25.37,28.06,5.89,30.13,1019.54,2052.03,2770.02,2764.93,2968.02,349.87,323.78,20.72,0000 0000 0000 0000 000000
2013-10-26 00:18:21,0.04,2.02,0.00,23.70,25.37,28.09,6.08,30.17,1019.54,2052.04,2769.97,2764.78,2968.00,350.16,324.44,20.72,0000 0000 0000 0000 000000
2013-10-26 00:19:21,0.08,2.02,0.00,23.72,25.37,28.08,5.86,30.33,1019.55,2052.06,2769.74,2764.45,2967.98,349.44,323.48,20.73,0000 0000 0000 0000 000000
2013-10-26 00:20:21,0.13,2.02,0.00,23.71,25.37,28.04,5.92,30.25,1019.51,2052.07,2769.32,2764.18,2967.89,350.18,324.02,20.74,0000 0000 0000 0000 000000
2013-10-26 00:21:22,0.17,2.03,0.00,23.70,25.37,28.03,5.97,30.21,1019.51,2052.04,2769.13,2764.06,2967.55,350.49,324.47,20.74,0000 0000 0000 0000 000000
2013-10-26 00:22:22,0.09,2.03,0.00,23.72,25.37,28.00,5.87,30.21,1019.45,2052.02,2769.05,2764.02,2967.24,349.65,323.76,20.75,0000 0000 0000 0000 000000
2013-10-26 00:23:22,0.05,2.03,0.00,23.70,25.37,28.06,5.93,30.21,1019.45,2052.00,2769.01,2764.00,2967.08,349.91,323.76,20.75,0000 0000 0000 0000 000000
2013-10-26 00:24:22,0.02,2.03,0.00,23.70,25.37,28.12,5.84,30.13,1019.37,2052.01,2768.91,2763.99,2967.03,349.89,324.29,20.76,0000 0000 0000 0000 000000
2013-10-26 00:25:23,0.03,2.03,0.00,23.71,25.37,28.01,5.85,30.17,1019.33,2052.01,2768.56,2763.96,2967.01,349.38,323.47,20.76,0000 0000 0000 0000 000000
2013-10-26 00:26:23,0.06,2.03,0.00,23.72,25.37,28.03,5.97,30.29,1019.38,2052.03,2768.25,2763.90,2966.99,350.05,324.28,20.77,0000 0000 0000 0000 000000
2013-10-26 00:27:23,0.11,2.03,0.00,23.72,25.37,28.04,6.02,30.13,1019.36,2052.05,2768.08,2763.57,2966.96,350.48,324.51,20.78,0000 0000 0000 0000 000000
2013-10-26 00:28:24,0.14,2.03,0.00,23.72,25.37,28.07,5.97,30.29,1019.35,2052.07,2768.03,2763.25,2966.72,350.45,324.47,20.78,0000 0000 0000 0000 000000
2013-10-26 00:29:24,0.13,2.03,0.00,23.72,25.37,28.12,6.02,30.29,1019.40,2052.07,2767.99,2763.09,2966.35,350.15,324.21,20.79,0000 0000 0000 0000 000000
2013-10-26 00:30:24,0.10,2.03,0.00,23.72,25.37,28.10,5.92,30.13,1019.39,2052.04,2767.82,2763.03,2966.13,350.38,324.42,20.79,0000 0000 0000 0000 000000
2013-10-26 00:31:24,0.08,2.03,0.00,23.71,25.37,28.10,5.85,30.21,1019.41,2052.05,2767.52,2763.01,2966.05,349.85,323.94,20.80,0000 0000 0000 0000 000000
2013-10-26 00:32:25,0.06,2.03,0.00,23.71,25.37,28.13,6.01,30.08,1019.37,2052.04,2767.25,2763.00,2966.01,350.52,324.55,20.81,0000 0000 0000 0000 000000
2013-10-26 00:33:25,0.05,2.03,0.00,23.71,25.38,28.03,5.92,30.21,1019.20,2052.04,2767.08,2762.97,2966.00,349.38,323.94,20.81,0000 0000 0000 0000 000000
2013-10-26 00:34:25,0.03,2.03,0.00,23.70,25.37,28.06,5.94,30.17,1019.23,2052.03,2767.02,2762.84,2965.99,349.89,323.93,20.82,0000 0000 0000 0000 000000
2013-10-26 00:35:26,0.05,2.03,0.00,23.71,25.38,28.08,5.88,30.13,1019.15,2052.04,2766.97,2762.51,2965.94,350.12,324.11,20.82,0000 0000 0000 0000 000000
2013-10-26 00:36:26,0.13,2.03,0.00,23.74,25.38,28.03,5.84,30.04,1019.11,2052.05,2766.64,2762.21,2965.69,349.76,324.13,20.83,0000 0000 0000 0000 000000
2013-10-26 00:37:26,0.19,2.03,0.00,23.75,25.39,28.11,6.04,30.13,1019.07,2052.08,2766.28,2762.08,2965.34,349.51,323.75,20.84,0000 0000 0000 0000 000000
2013-10-26 00:38:26,0.14,2.03,0.00,23.74,25.39,28.04,6.02,30.13,1019.07,2052.06,2766.10,2762.03,2965.13,349.93,324.50,20.84,0000 0000 0000 0000 000000
2013-10-26 00:39:27,0.07,2.03,0.00,23.73,25.39,28.13,5.91,30.13,1019.08,2052.07,2766.03,2762.01,2965.05,349.89,324.00,20.85,0000 0000 0000 0000 000000
2013-10-26 00:40:27,0.05,2.04,0.00,23.73,25.39,28.05,5.98,30.17,1019.09,2052.08,2765.95,2761.96,2965.01,350.51,324.80,20.85,0000 0000 0000 0000 000000
2013-10-26 00:41:27,0.04,2.04,0.00,23.73,25.39,28.05,6.03,30.17,1019.11,2052.06,2765.68,2761.88,2965.00,350.25,324.49,20.86,0000 0000 0000 0000 000000
2013-10-26 00:42:28,0.07,2.04,0.00,23.74,25.39,28.11,6.02,30.17,1019.10,2052.07,2765.39,2761.66,2964.93,349.72,323.98,20.86,0000 0000 0000 0000 000000
2013-10-26 00:43:28,0.14,2.04,0.00,23.74,25.40,28.03,5.98,30.29,1019.09,2052.04,2765.19,2761.30,2964.68,350.55,324.49,20.87,0000 0000 0000 0000 000000
2013-10-26 00:44:28,0.15,2.04,0.00,23.77,25.39,28.11,6.12,30.33,1019.11,2052.03,2765.08,2761.13,2964.34,350.55,324.23,20.88,0000 0000 0000 0000 000000
2013-10-26 00:45:28,0.09,2.04,0.00,23.77,25.40,28.04,5.78,30.21,1019.08,2052.03,2765.03,2761.04,2964.13,349.91,323.83,20.88,0000 0000 0000 0000 000000
2013-10-26 00:46:29,0.06,2.04,0.00,23.75,25.40,28.06,5.75,30.29,1019.08,2052.04,2764.99,2761.01,2964.05,349.54,323.50,20.89,0000 0000 0000 0000 000000
2013-10-26 00:47:29,0.04,2.04,0.00,23.74,25.40,28.08,5.98,30.08,1019.07,2052.06,2764.78,2761.00,2964.01,349.81,323.77,20.89,0000 0000 0000 0000 000000
2013-10-26 00:48:29,0.07,2.04,0.00,23.72,25.40,28.12,6.01,30.17,1019.08,2052.05,2764.34,2760.96,2963.99,350.34,323.89,20.90,0000 0000 0000 0000 000000
2013-10-26 00:49:30,0.09,2.04,0.00,23.72,25.40,28.12,5.80,30.04,1019.07,2052.03,2764.13,2760.75,2963.88,349.42,323.29,20.91,0000 0000 0000 0000 000000
2013-10-26 00:50:30,0.12,2.04,0.00,23.73,25.40,28.05,5.97,30.29,1019.06,2052.03,2764.04,2760.37,2963.57,350.86,324.83,20.91,0000 0000 0000 0000 000000
2013-10-26 00:51:30,0.15,2.04,0.00,23.72,25.40,28.03,6.11,30.00,1019.07,2052.04,2763.90,2760.16,2963.25,350.67,324.58,20.92,0000 0000 0000 0000 000000
2013-10-26 00:52:31,0.13,2.04,0.00,23.74,25.40,28.04,5.97,30.29,1019.06,2052.05,2763.45,2760.07,2963.11,349.91,323.85,20.92,0000 0000 0000 0000 000000
2013-10-26 00:53:31,0.12,2.04,0.00,23.75,25.40,28.07,6.06,29.88,1019.06,2052.03,2763.17,2760.02,2963.04,350.65,324.52,20.93,0000 0000 0000 0000 000000
2013-10-26 00:54:31,0.07,2.04,0.00,23.78,25.40,28.11,5.96,30.25,1019.06,2052.04,2763.06,2760.00,2963.01,349.17,323.13,20.93,0000 0000 0000 0000 000000
2013-10-26 00:55:31,0.02,2.04,0.00,23.75,25.40,28.10,5.98,30.25,1019.06,2052.04,2762.98,2759.98,2962.97,349.93,324.00,20.94,0000 0000 0000 0000 000000
2013-10-26 00:56:31,0.04,2.04,0.00,23.77,25.40,28.09,5.87,30.08,1019.06,2052.04,2762.71,2759.88,2962.84,349.90,323.82,20.95,0000 0000 0000 0000 000000
2013-10-26 00:57:32,0.12,2.04,0.00,23.77,25.40,28.11,5.87,30.13,1019.05,2052.05,2762.36,2759.59,2962.55,349.40,323.65,20.95,0000 0000 0000 0000 000000
2013-10-26 00:58:32,0.18,2.04,0.00,23.75,25.40,28.09,6.05,30.21,1019.05,2052.06,2762.13,2759.27,2962.24,350.10,324.01,20.96,0000 0000 0000 0000 000000
2013-10-26 00:59:32,0.16,2.05,0.00,23.75,25.40,28.05,6.11,30.17,1019.06,2052.03,2762.04,2759.10,2962.09,350.50,324.34,20.96,0000 0000 0000 0000 000000
2013-10-26 01:00:33,0.08,2.05,0.00,23.76,25.40,28.09,5.97,30.08,1019.06,2052.01,2762.00,2759.03,2962.03,350.85,323.90,20.97,0000 0000 0000 0000 000000
2013-10-26 01:01:33,0.03,2.05,0.00,23.76,25.40,28.09,6.10,30.13,1019.06,2052.03,2761.95,2759.01,2962.00,351.42,325.30,20.98,0000 0000 0000 0000 000000
2013-10-26 01:02:34,0.03,2.05,0.00,23.73,25.40,28.05,5.84,30.00,1019.06,2052.03,2761.66,2759.00,2961.98,349.35,323.34,20.98,0000 0000 0000 0000 000000
2013-10-26 01:03:34,0.06,2.05,0.00,23.74,25.40,28.09,6.08,30.25,1019.04,2052.05,2761.28,2758.98,2961.92,350.25,324.16,20.99,0000 0000 0000 0000 000000
2013-10-26 01:04:34,0.11,2.05,0.00,23.77,25.40,28.07,6.13,30.17,1019.05,2052.06,2761.10,2758.64,2961.53,350.10,323.99,20.99,0000 0000 0000 0000 000000
2013-10-26 01:05:34,0.17,2.05,0.00,23.75,25.40,28.13,5.99,30.21,1019.06,2052.05,2761.03,2758.34,2961.22,349.89,323.82,21.00,0000 0000 0000 0000 000000
2013-10-26 01:06:34,0.14,2.05,0.00,23.75,25.40,28.09,6.12,30.17,1019.06,2052.05,2760.97,2758.14,2961.08,350.93,324.79,21.01,0000 0000 0000 0000 000000
2013-10-26 01:07:35,0.08,2.05,0.00,23.74,25.40,28.11,5.97,30.04,1019.05,2052.07,2760.87,2758.05,2961.03,350.18,324.10,21.01,0000 0000 0000 0000 000000
2013-10-26 01:08:35,0.06,2.05,0.00,23.75,25.41,28.12,5.91,30.04,1019.04,2052.08,2760.46,2758.02,2961.01,350.08,324.00,21.02,0000 0000 0000 0000 000000
2013-10-26 01:09:35,0.08,2.05,0.00,23.73,25.42,28.15,5.82,30.17,1019.04,2052.06,2760.17,2758.00,2960.98,350.87,324.68,21.02,0000 0000 0000 0000 000000
2013-10-26 01:10:35,0.04,2.05,0.00,23.73,25.41,28.12,6.00,30.29,1019.01,2052.05,2760.07,2758.00,2960.97,351.42,325.24,21.03,0000 0000 0000 0000 000000
2013-10-26 01:11:35,0.00,2.05,0.00,23.72,25.42,28.15,6.02,30.17,1019.00,2052.05,2760.01,2757.99,2960.82,350.20,324.12,21.03,0000 0000 0000 0000 000000
2013-10-26 01:12:36,0.04,2.05,0.00,23.72,25.42,28.10,5.93,30.17,1018.97,2052.02,2759.97,2757.83,2960.45,349.47,323.43,21.04,0000 0000 0000 0000 000000
2013-10-26 01:13:36,0.11,2.05,0.00,23.74,25.42,28.10,5.95,30.08,1018.93,2052.03,2759.82,2757.47,2960.17,350.22,324.10,21.05,0000 0000 0000 0000 000000
2013-10-26 01:14:36,0.18,2.05,0.00,23.76,25.42,28.11,6.10,30.33,1018.93,2052.04,2759.39,2757.19,2960.07,350.23,324.08,21.05,0000 0000 0000 0000 000000
2013-10-26 01:15:36,0.15,2.05,0.00,23.76,25.42,28.08,6.00,30.17,1019.00,2052.06,2759.17,2757.07,2960.02,350.04,324.13,21.06,0000 0000 0000 0000 000000
2013-10-26 01:16:37,0.09,2.06,0.00,23.76,25.42,28.14,5.92,30.13,1018.96,2052.06,2759.07,2757.03,2960.00,350.10,324.27,21.06,0000 0000 0000 0000 000000
2013-10-26 01:17:37,0.02,2.06,0.00,23.77,25.42,28.08,5.88,30.13,1018.93,2052.05,2759.02,2757.01,2959.99,350.44,323.80,21.07,0000 0000 0000 0000 000000
2013-10-26 01:18:37,0.00,2.06,0.00,23.79,25.42,28.09,5.86,30.13,1018.94,2052.05,2758.98,2757.00,2959.95,350.17,324.00,21.08,0000 0000 0000 0000 000000
2013-10-26 01:19:37,0.03,2.06,0.00,23.78,25.42,28.11,6.05,30.33,1018.96,2052.04,2758.72,2756.98,2959.70,350.49,324.32,21.08,0000 0000 0000 0000 000000
2013-10-26 01:20:38,0.10,2.06,0.00,23.77,25.42,28.14,5.77,30.04,1018.95,2052.04,2758.33,2756.90,2959.35,349.62,323.56,21.09,0000 0000 0000 0000 000000
2013-10-26 01:21:38,0.13,2.06,0.00,23.78,25.42,28.09,5.90,30.00,1018.95,2052.07,2758.13,2756.66,2959.17,349.34,323.89,21.09,0000 0000 0000 0000 000000
2013-10-26 01:22:38,0.15,2.06,0.00,23.76,25.42,28.11,5.90,30.04,1019.00,2052.04,2758.05,2756.33,2959.07,349.16,323.13,21.10,0000 0000 0000 0000 000000
2013-10-26 01:23:38,0.09,2.06,0.00,23.78,25.42,28.06,5.95,30.08,1019.02,2052.02,2758.01,2756.16,2959.02,349.92,323.80,21.10,0000 0000 0000 0000 000000
2013-10-26 01:24:39,0.04,2.06,0.00,23.77,25.42,28.06,5.94,30.00,1018.99,2052.02,2757.97,2756.06,2958.99,350.56,324.39,21.11,0000 0000 0000 0000 000000
2013-10-26 01:25:39,0.06,2.06,0.00,23.78,25.42,28.17,5.73,30.08,1018.97,2052.03,2757.89,2756.02,2958.94,349.72,323.92,21.12,0000 0000 0000 0000 000000
2013-10-26 01:26:39,0.04,2.06,0.00,23.79,25.42,28.12,5.92,30.04,1018.96,2052.02,2757.57,2756.00,2958.75,349.89,323.75,21.12,0000 0000 0000 0000 000000
2013-10-26 01:27:40,0.09,2.06,0.00,23.80,25.42,28.18,6.13,30.13,1018.97,2052.02,2757.25,2755.99,2958.34,351.11,325.02,21.13,0000 0000 0000 0000 000000
2013-10-26 01:28:40,0.10,2.06,0.00,23.77,25.42,28.12,6.17,30.17,1018.96,2052.02,2757.09,2755.90,2958.14,350.78,324.58,21.13,0000 0000 0000 0000 000000
2013-10-26 01:29:40,0.10,2.06,0.00,23.78,25.42,28.18,6.12,30.13,1018.96,2052.04,2757.03,2755.65,2958.05,349.97,323.67,21.14,0000 0000 0000 0000 000000
2013-10-26 01:30:40,0.10,2.06,0.00,23.78,25.42,28.14,5.85,30.21,1018.89,2052.03,2756.97,2755.33,2958.01,349.26,323.11,21.15,0000 0000 0000 0000 000000
2013-10-26 01:31:41,0.10,2.06,0.00,23.78,25.42,28.15,6.17,30.08,1018.80,2052.03,2756.59,2755.12,2958.00,350.84,324.58,21.15,0000 0000 0000 0000 000000
2013-10-26 01:32:41,0.13,2.06,0.00,23.78,25.42,28.11,6.17,30.13,1018.74,2052.03,2756.23,2755.04,2957.97,351.15,324.80,21.16,0000 0000 0000 0000 000000
2013-10-26 01:33:41,0.07,2.06,0.00,23.77,25.42,28.18,6.01,30.13,1018.70,2052.02,2756.09,2755.01,2957.90,350.51,324.25,21.16,0000 0000 0000 0000 000000
2013-10-26 01:34:41,0.03,2.06,0.00,23.76,25.42,28.19,5.94,30.25,1018.68,2052.01,2756.02,2755.00,2957.60,349.75,323.74,21.17,0000 0000 0000 0000 000000
2013-10-26 01:35:42,0.05,2.06,0.00,23.79,25.43,28.14,5.99,30.13,1018.63,2052.01,2756.00,2754.99,2957.28,350.40,324.11,21.18,0000 0000 0000 0000 000000
2013-10-26 01:36:42,0.05,2.06,0.00,23.80,25.43,28.12,6.02,30.04,1018.58,2052.02,2755.97,2754.94,2957.15,350.50,324.19,21.18,0000 0000 0000 0000 000000
2013-10-26 01:37:42,0.05,2.06,0.00,23.81,25.43,28.11,5.92,30.08,1018.59,2052.01,2755.66,2754.70,2957.06,349.56,323.30,21.19,0000 0000 0000 0000 000000
2013-10-26 01:38:42,0.14,2.07,0.00,23.84,25.44,28.15,5.82,30.13,1018.62,2052.00,2755.30,2754.35,2957.02,349.78,323.48,21.19,0000 0000 0000 0000 000000
2013-10-26 01:39:43,0.15,2.07,0.00,23.83,25.44,28.11,6.02,30.04,1018.59,2052.01,2755.11,2754.15,2956.99,350.06,323.08,21.20,0000 0000 0000 0000 000000
2013-10-26 01:40:43,0.09,2.07,0.00,23.81,25.44,28.09,5.88,30.13,1018.58,2052.01,2755.04,2754.05,2956.95,350.25,324.17,21.20,0000 0000 0000 0000 000000
2013-10-26 01:41:43,0.04,2.07,0.00,23.82,25.44,28.17,5.88,30.04,1018.59,2052.01,2755.01,2754.02,2956.77,350.29,323.72,21.21,0000 0000 0000 0000 000000
2013-10-26 01:42:43,0.06,2.07,0.00,23.83,25.45,28.10,5.76,30.21,1018.57,2052.01,2754.74,2754.00,2956.40,349.07,322.82,21.22,0000 0000 0000 0000 000000
2013-10-26 01:43:44,0.10,2.07,0.00,23.82,25.45,28.07,5.93,30.08,1018.58,2052.01,2754.31,2753.99,2956.18,349.12,322.87,21.22,0000 0000 0000 0000 000000
2013-10-26 01:44:44,0.09,2.07,0.00,23.81,25.45,28.12,5.94,30.04,1018.58,2052.02,2754.14,2753.83,2956.08,349.45,323.20,21.23,0000 0000 0000 0000 000000
2013-10-26 01:45:44,0.10,2.07,0.00,23.83,25.45,28.11,6.04,30.08,1018.57,2052.01,2754.05,2753.70,2956.03,349.75,323.45,21.23,0000 0000 0000 0000 000000
2013-10-26 01:46:45,0.05,2.07,0.00,23.85,25.45,28.19,6.23,30.17,1018.57,2052.01,2754.01,2753.45,2956.01,351.51,325.06,21.24,0000 0000 0000 0000 000000
2013-10-26 01:47:45,0.07,2.07,0.00,23.84,25.45,28.17,6.13,30.29,1018.57,2052.01,2753.99,2753.18,2955.97,350.75,324.36,21.25,0000 0000 0000 0000 000000
2013-10-26 01:48:45,0.08,2.07,0.00,23.85,25.45,28.24,5.81,30.33,1018.59,2052.01,2753.93,2753.07,2955.94,349.38,323.06,21.25,0000 0000 0000 0000 000000
2013-10-26 01:49:45,0.04,2.07,0.00,23.86,25.45,28.13,5.98,30.38,1018.57,2052.01,2753.53,2753.02,2955.73,351.04,324.83,21.26,0000 0000 0000 0000 000000
2013-10-26 01:50:46,0.14,2.07,0.00,23.84,25.45,28.13,5.96,30.08,1018.57,2052.02,2753.20,2753.00,2955.37,350.48,324.11,21.26,0000 0000 0000 0000 000000
2013-10-26 01:51:46,0.12,2.07,0.00,23.85,25.45,28.11,5.94,30.17,1018.57,2052.01,2753.07,2753.00,2955.17,349.39,323.10,21.27,0000 0000 0000 0000 000000
2013-10-26 01:52:46,0.03,2.07,0.00,23.84,25.45,28.16,5.83,30.04,1018.57,2052.01,2753.01,2752.95,2955.06,350.24,323.94,21.27,0000 0000 0000 0000 000000
2013-10-26 01:53:46,0.04,2.07,0.00,23.83,25.45,28.14,5.77,30.04,1018.58,2052.00,2752.99,2752.81,2955.02,349.42,322.57,21.28,0000 0000 0000 0000 000000
2013-10-26 01:54:47,0.05,2.07,0.00,23.82,25.45,28.15,6.13,30.25,1018.57,2052.02,2752.92,2752.61,2955.00,350.48,324.14,21.29,0000 0000 0000 0000 000000
2013-10-26 01:55:47,0.07,2.07,0.00,23.81,25.45,28.13,5.99,30.17,1018.57,2052.02,2752.69,2752.32,2954.99,350.44,324.11,21.29,0000 0000 0000 0000 000000
2013-10-26 01:56:47,0.17,2.07,0.00,23.83,25.45,28.14,6.13,30.13,1018.57,2052.02,2752.28,2752.12,2954.97,350.07,323.72,21.30,0000 0000 0000 0000 000000
2013-10-26 01:57:47,0.09,2.08,0.00,23.83,25.45,28.16,5.97,30.25,1018.57,2052.00,2752.10,2752.04,2954.80,350.25,323.80,21.30,0000 0000 0000 0000 000000
2013-10-26 01:58:48,0.07,2.08,0.00,23.83,25.45,28.10,5.74,30.04,1018.57,2052.01,2752.04,2752.01,2954.41,349.64,322.86,21.31,0000 0000 0000 0000 000000
2013-10-26 01:59:48,0.09,2.08,0.00,23.84,25.45,28.11,6.22,30.29,1018.57,2052.01,2752.01,2752.00,2954.18,351.31,324.34,21.32,0000 0000 0000 0000 000000
2013-10-26 02:00:48,0.04,2.08,0.00,23.83,25.45,28.21,5.94,30.08,1018.57,2052.01,2751.88,2752.00,2954.06,349.53,323.24,21.32,0000 0000 0000 0000 000000
2013-10-26 02:01:49,0.02,2.08,0.00,23.83,25.46,28.22,5.88,30.08,1018.57,2052.00,2751.52,2751.95,2954.02,348.80,322.57,21.33,0000 0000 0000 0000 000000
2013-10-26 02:02:49,0.09,2.08,0.00,23.85,25.46,28.13,6.10,30.25,1018.57,2052.00,2751.20,2751.85,2954.00,350.21,323.86,21.33,0000 0000 0000 0000 000000
2013-10-26 02:03:49,0.09,2.08,0.00,23.87,25.47,28.13,5.99,30.08,1018.57,2052.00,2751.08,2751.47,2953.96,350.08,323.72,21.34,0000 0000 0000 0000 000000
2013-10-26 02:04:50,0.13,2.08,0.00,23.88,25.47,28.17,6.05,30.21,1018.57,2052.00,2751.03,2751.23,2953.88,350.56,324.15,21.35,0000 0000 0000 0000 000000
2013-10-26 02:05:50,0.08,2.08,0.00,23.86,25.47,28.13,5.75,30.04,1018.57,2052.00,2751.00,2751.09,2953.49,349.24,322.83,21.35,0000 0000 0000 0000 000000
2013-10-26 02:06:50,0.10,2.08,0.00,23.84,25.47,28.20,6.17,30.17,1018.57,2052.00,2750.97,2751.03,2953.19,349.61,323.32,21.36,0000 0000 0000 0000 000000
2013-10-26 02:07:50,0.06,2.08,0.00,23.84,25.47,28.09,5.72,29.83,1018.57,2052.00,2750.84,2751.01,2953.07,349.01,322.76,21.36,0000 0000 0000 0000 000000
2013-10-26 02:08:50,0.05,2.08,0.00,23.82,25.47,28.12,5.80,30.04,1018.57,2052.00,2750.40,2751.00,2953.03,349.54,323.26,21.37,0000 0000 0000 0000 000000
2013-10-26 02:09:51,0.08,2.08,0.00,23.85,25.47,28.17,5.81,30.04,1018.57,2052.00,2750.15,2750.98,2953.00,349.28,323.00,21.37,0000 0000 0000 0000 000000
2013-10-26 02:10:51,0.06,2.08,0.00,23.83,25.47,28.18,5.98,29.96,1018.57,2052.00,2750.05,2750.93,2952.97,350.66,324.52,21.38,0000 0000 0000 0000 000000
2013-10-26 02:11:51,0.03,2.08,0.00,23.86,25.47,28.19,5.96,30.13,1018.57,2052.00,2750.01,2750.80,2952.90,349.64,323.31,21.39,0000 0000 0000 0000 000000
2013-10-26 02:12:51,0.06,2.08,0.00,23.87,25.47,28.23,6.02,30.08,1018.57,2052.00,2749.99,2750.54,2952.66,349.57,323.24,21.39,0000 0000 0000 0000 000000
2013-10-26 02:13:52,0.10,2.08,0.00,23.86,25.47,28.16,6.07,30.13,1018.57,2052.00,2749.77,2750.27,2952.36,350.43,324.04,21.40,0000 0000 0000 0000 000000
2013-10-26 02:14:52,0.17,2.08,0.00,23.84,25.47,28.13,6.02,30.17,1018.57,2052.00,2749.38,2750.11,2952.16,350.02,323.69,21.40,0000 0000 0000 0000 000000
2013-10-26 02:15:52,0.14,2.08,0.00,23.84,25.47,28.18,6.02,30.00,1018.57,2052.00,2749.14,2750.04,2952.05,350.04,323.25,21.41,0000 0000 0000 0000 000000
2013-10-26 02:16:52,0.07,2.08,0.00,23.87,25.47,28.17,6.17,29.96,1018.57,2052.00,2749.05,2750.01,2952.02,350.98,324.09,21.42,0000 0000 0000 0000 000000
2013-10-26 02:17:53,0.03,2.08,0.00,23.87,25.47,28.16,5.72,29.96,1018.57,2052.00,2749.01,2750.00,2952.00,349.50,323.17,21.42,0000 0000 0000 0000 000000
2013-10-26 02:18:53,0.00,2.08,0.00,23.86,25.47,28.21,5.77,30.13,1018.57,2052.00,2748.95,2749.96,2951.99,349.81,323.13,21.43,0000 0000 0000 0000 000000
2013-10-26 02:19:53,0.02,2.09,0.00,23.89,25.47,28.20,6.09,30.17,1018.57,2052.00,2748.66,2749.89,2951.95,350.66,323.79,21.43,0000 0000 0000 0000 000000
2013-10-26 02:20:53,0.08,2.09,0.00,23.88,25.47,28.13,5.97,29.88,1018.57,2052.00,2748.30,2749.64,2951.71,350.22,323.83,21.44,0000 0000 0000 0000 000000
2013-10-26 02:21:54,0.17,2.09,0.00,23.88,25.48,28.24,6.19,30.17,1018.57,2052.00,2748.14,2749.33,2951.37,350.68,324.26,21.45,0000 0000 0000 0000 000000
2013-10-26 02:22:54,0.17,2.09,0.00,23.88,25.48,28.20,6.04,30.04,1018.57,2052.00,2748.05,2749.14,2951.15,350.43,324.03,21.45,0000 0000 0000 0000 000000
2013-10-26 02:23:54,0.08,2.09,0.00,23.85,25.48,28.19,5.93,29.92,1018.56,2052.00,2748.01,2749.05,2951.05,351.10,324.68,21.46,0000 0000 0000 0000 000000
2013-10-26 02:24:54,0.03,2.09,0.00,23.84,25.49,28.20,5.89,29.88,1018.57,2052.00,2747.96,2749.02,2951.02,349.95,323.62,21.46,0000 0000 0000 0000 000000
2013-10-26 02:25:55,0.02,2.09,0.00,23.89,25.49,28.17,5.87,29.92,1018.57,2052.00,2747.63,2749.00,2951.00,349.16,322.71,21.47,0000 0000 0000 0000 000000
2013-10-26 02:26:55,0.08,2.09,0.00,23.89,25.49,28.19,6.11,30.04,1018.57,2052.00,2747.29,2748.98,2950.97,350.86,324.41,21.47,0000 0000 0000 0000 000000
2013-10-26 02:27:55,0.06,2.09,0.00,23.88,25.50,28.18,5.96,29.96,1018.57,2052.00,2747.11,2748.82,2950.68,350.86,324.41,21.48,0000 0000 0000 0000 000000
2013-10-26 02:28:55,0.14,2.09,0.00,23.89,25.50,28.24,5.92,30.00,1018.57,2052.00,2747.03,2748.47,2950.34,349.46,323.13,21.49,0000 0000 0000 0000 000000
2013-10-26 02:29:56,0.17,2.09,0.00,23.89,25.50,28.25,5.78,30.21,1018.56,2052.00,2746.99,2748.21,2950.14,348.62,322.34,21.49,0000 0000 0000 0000 000000
2013-10-26 02:30:56,0.09,2.09,0.00,23.87,25.50,28.27,5.85,30.08,1018.57,2052.00,2746.81,2748.09,2950.05,349.68,323.34,21.50,0000 0000 0000 0000 000000
2013-10-26 02:31:56,0.08,2.09,0.00,23.87,25.50,28.17,5.99,30.08,1018.56,2052.00,2746.36,2748.03,2950.01,349.89,323.54,21.50,0000 0000 0000 0000 000000
2013-10-26 02:32:56,0.09,2.09,0.00,23.90,25.50,28.20,5.97,30.04,1018.54,2052.00,2746.15,2748.01,2950.00,349.36,323.58,21.51,0000 0000 0000 0000 000000
2013-10-26 02:33:56,0.03,2.09,0.00,23.90,25.50,28.18,5.94,29.92,1018.54,2052.00,2746.07,2748.00,2949.97,349.81,323.64,21.52,0000 0000 0000 0000 000000
2013-10-26 02:34:56,0.02,2.09,0.00,23.89,25.50,28.25,5.86,30.13,1018.45,2052.00,2746.02,2747.99,2949.86,349.81,323.75,21.52,0000 0000 0000 0000 000000
2013-10-26 02:35:57,0.02,2.09,0.00,23.91,25.50,28.22,5.75,29.92,1018.35,2052.00,2746.00,2747.95,2949.60,348.76,322.24,21.53,0000 0000 0000 0000 000000